{"data":{"norad_id":67313,"intl_designator":"2026-002J","name":"STARLINK-36445","alt_names":[],"object_type":"PAYLOAD","status":"ACTIVE","operator":null,"country":"US","launch_date":"2026-01-04","launch_site_code":"AFETR","launch_vehicle":null,"mission":null,"orbit_class":"UNKNOWN","rcs_meters":null,"size_class":null,"mass_kg":null,"dimensions":null,"purposes":["comms"],"wikipedia_slug":null,"has_3d_model":false,"image_url":null,"decayed_at":null,"tle_current":{"epoch":"2026-09-18T04:16:48.112896Z","epoch_age_seconds":275929,"freshness":"STALE","line1":"1 67313U 26002J   26261.17833464  .00007023  00000+0  26437-3 0  9999","line2":"2 67313  43.0001 318.5364 0001176 279.5726  80.4993 15.27594382 40679","mean_motion":15.27594382,"eccentricity":0.0001176,"inclination_deg":43.0001,"raan_deg":318.5364,"arg_perigee_deg":279.5726,"mean_anomaly_deg":80.4993,"bstar":0.00026437,"rev_number":4067,"period_min":94.265861210794,"perigee_km":482.19916107512,"apogee_km":483.81290191613,"semimajor_km":6861.1430314956,"source":"CELESTRAK","updated_at":"2026-09-20T09:00:43.504102Z"}}}